This is the latest recevied weather packets stored in our database for station/object KD4PMP. If no packets are shown the sender has not sent any weather packets the latest 10 day(s).
| Time | Temp. | Humidity | Pressure | Rain* | Wind** | Luminosity | Snow |
|---|---|---|---|---|---|---|---|
| 1777814404 | 7.22° C | 98% | 1021.2 hPa | 0 mm | - | - | - |
| 1777813805 | 7.22° C | 98% | 1021.2 hPa | 0 mm | - | - | - |
| 1777813203 | 6.67° C | 98% | 1021.2 hPa | 0 mm | - | - | - |
| 1777812603 | 5.56° C | 97% | 1021.3 hPa | 0 mm | - | - | - |
| 1777812003 | 5° C | 97% | 1021.2 hPa | 0 mm | - | - | - |
| 1777811403 | 4.44° C | 96% | 1021 hPa | 0 mm | - | - | - |
| 1777810802 | 4.44° C | 96% | 1020.9 hPa | 0 mm | - | - | - |
| 1777810202 | 3.89° C | 96% | 1020.8 hPa | 0 mm | - | - | - |
| 1777809601 | 3.89° C | 96% | 1020.8 hPa | 0 mm | - | - | - |
| 1777809001 | 3.89° C | 96% | 1020.7 hPa | 0 mm | - | - | - |
| 1777808401 | 3.33° C | 96% | 1020.5 hPa | 0 mm | - | - | - |
| 1777807801 | 3.33° C | 96% | 1020.2 hPa | 0 mm | - | - | - |
| 1777807201 | 3.33° C | 96% | 1020.3 hPa | 0 mm | - | - | - |
| 1777806600 | 3.33° C | 96% | 1020.2 hPa | 0 mm | - | - | - |
| 1777806000 | 3.33° C | 96% | 1020 hPa | 0 mm | - | - | - |
| 1777805399 | 3.33° C | 95% | 1019.8 hPa | 0 mm | - | - | - |
| 1777804799 | 3.33° C | 95% | 1019.7 hPa | 0 mm | - | - | - |
| 1777804199 | 3.33° C | 95% | 1019.6 hPa | 0 mm | - | - | - |
| 1777803598 | 3.33° C | 95% | 1019.6 hPa | 0 mm | - | - | - |
| 1777802998 | 3.33° C | 95% | 1019.6 hPa | 0 mm | - | - | - |
| 1777802398 | 3.33° C | 95% | 1019.7 hPa | 0 mm | - | - | - |
| 1777801828 | 3.89° C | 95% | 1019.8 hPa | 0 mm | - | - | - |
| 1777801197 | 3.89° C | 95% | 1019.7 hPa | 0 mm | - | - | - |
| 1777800597 | 3.89° C | 95% | 1019.8 hPa | 0 mm | - | - | - |
| 1777799997 | 3.89° C | 95% | 1019.8 hPa | 0 mm | - | - | - |
* Rain latest hour (hover to see other rain measurements)
** Current wind speed in m/s (hover to see current wind gust speed)